Location: Krasnoyarskiy Pitomnik
(51.1333°N, 71.6167°E)
Time: 19:51:09
(UTC+00:00)

Vanguard 2 - All Passes

Search period start: 12 April 2024 00:00
Search period end: 22 April 2024 00:00
Orbit: 553 x 2917 km, 32.9° (Epoch: 12 April)

Date Brightness Start Highest point End Pass type
(mag) Time Alt. Az. Time Alt. Az. Time Alt. Az.
12 Apr - 01:39:05 10° WSW 01:52:54 35° S 02:02:55 10° SE daylight
12 Apr - 03:51:00 10° WSW 04:01:15 25° SSW 04:08:41 10° SSE daylight
12 Apr - 21:37:12 10° S 21:48:30 21° SSE 21:59:02 10° ESE visible
12 Apr - 23:43:24 10° SW 23:57:53 34° SSE 00:09:38 10° ESE visible
13 Apr - 01:53:30 10° WSW 02:07:19 35° S 02:17:22 10° SE daylight
13 Apr - 04:05:59 10° WSW 04:15:26 22° SSW 04:22:31 10° SSE daylight
13 Apr - 21:50:04 10° SSW 22:02:44 25° SSE 22:14:27 10° ESE visible
13 Apr - 23:57:24 10° SW 00:12:18 36° S 00:24:19 10° ESE daylight
14 Apr - 02:08:02 10° WSW 02:21:42 34° SSW 02:31:42 10° SE daylight
14 Apr - 04:21:12 10° WSW 04:29:31 19° SW 04:36:02 10° S daylight
14 Apr - 20:01:40 10° SSE 20:08:16 13° SE 20:14:55 10° ESE visible
14 Apr - 22:03:23 10° SSW 22:17:00 29° SSE 22:29:34 10° ESE visible
15 Apr - 00:11:34 10° SW 00:26:44 38° S 00:38:55 10° ESE daylight
15 Apr - 02:22:40 10° WSW 02:36:00 32° SSW 02:45:53 10° SE daylight
15 Apr - 04:36:51 10° WSW 04:43:32 15° SW 04:49:02 10° SSW daylight
15 Apr - 20:12:53 10° S 20:22:16 18° SE 20:31:50 10° ESE visible
15 Apr - 22:16:59 10° SW 22:31:17 33° SSE 22:44:29 10° ESE visible
16 Apr - 00:25:52 10° WSW 00:41:08 38° S 00:53:25 10° ESE daylight
16 Apr - 02:37:24 10° WSW 02:50:14 29° SSW 02:59:55 10° SSE daylight
16 Apr - 04:53:33 10° WSW 04:57:27 12° SW 05:00:56 10° SSW daylight
16 Apr - 20:25:15 10° S 20:36:19 22° SE 20:47:41 10° ESE visible
16 Apr - 22:30:50 10° SW 22:45:37 36° SSE 22:59:15 10° ESE visible
17 Apr - 00:40:16 10° WSW 00:55:31 38° S 01:07:49 10° SE daylight
17 Apr - 02:52:17 10° WSW 03:04:23 26° SSW 03:13:43 10° SSE daylight
17 Apr - 20:38:14 10° SSW 20:50:24 26° SSE 21:03:03 10° ESE visible
17 Apr - 22:44:51 10° SW 22:59:57 38° S 23:13:53 10° ESE visible
18 Apr - 00:54:47 10° WSW 01:09:51 37° SSW 01:22:05 10° SE daylight
18 Apr - 03:07:22 10° WSW 03:18:27 23° SW 03:27:16 10° S daylight
18 Apr - 18:50:51 10° SSE 18:56:19 13° SE 19:02:05 10° ESE visible
18 Apr - 20:51:37 10° SSW 21:04:32 30° SSE 21:18:07 10° ESE visible
18 Apr - 22:59:02 10° SW 23:14:19 40° S 23:28:26 10° ESE visible
19 Apr - 01:09:23 10° WSW 01:24:08 35° SSW 01:36:13 10° SE daylight
19 Apr - 03:22:45 10° WSW 03:32:26 19° SW 03:40:25 10° S daylight
19 Apr - 19:01:59 10° S 19:10:10 17° SE 19:19:11 10° ESE visible
19 Apr - 21:05:16 10° SSW 21:18:43 33° SSE 21:32:59 10° ESE visible
19 Apr - 23:13:19 10° WSW 23:28:40 40° S 23:42:52 10° ESE visible
20 Apr - 01:24:05 10° WSW 01:38:21 32° SSW 01:50:12 10° SSE daylight
20 Apr - 03:38:42 10° WSW 03:46:19 15° SW 03:52:55 10° SSW daylight
20 Apr - 19:14:23 10° S 19:24:06 21° SE 19:35:04 10° ESE visible
20 Apr - 21:19:09 10° SW 21:32:58 36° SSE 21:47:42 10° ESE visible
20 Apr - 23:27:43 10° WSW 23:43:01 40° S 23:57:13 10° SE visible
21 Apr - 01:38:54 10° WSW 01:52:30 29° SSW 02:03:58 10° SSE daylight
21 Apr - 03:56:05 10° WSW 04:00:08 11° SW 04:03:53 10° SW daylight
21 Apr - 19:27:25 10° SSW 19:38:04 25° SE 19:50:26 10° E visible
21 Apr - 21:33:12 10° SW 21:47:14 38° SSE 22:02:18 10° ESE visible
